Tracking 33750 objects as of 15-Apr-2026
HD Live streaming from Space Station
objects crossing your sky now

CZ-4C DEB

Track CZ-4C DEB now!
10-day predictions


NORAD ID: 43410
Int'l Code: 2013-052E
Perigee: 806.0 km
Apogee: 1,161.5 km
Inclination: 98.8 °
Period: 104.6 minutes
Semi major axis: 7354 km
RCS: Unknown
Launch date: September 23, 2013
Source: People's Republic of China (PRC)
Launch site: Taiyaun Space Center, China (TSC)

Note: This is SATELLITE DEBRIS
Your satellite tracking list
Your tracking list is empty




NASA's NSSDC Master Catalog

Two Line Element Set (TLE):
1 43410U 13052E   26094.18889558  .00000687  00000-0  60134-3 0  9994
2 43410  98.8079 243.3490 0241666 243.3058 114.3169 13.76422439620352
Source of the keplerian elements: AFSPC